Location: Newark
(51.3318°N, 0.0053°E)
Time: 02:05:46
(UTC+00:00)

Envisat - Pass Details

Date: 30 January 2022
Orbit: 764 x 765 km, 98.2° (Epoch: 28 May)

Event Time Altitude Azimuth Distance (km) Brightness Sun altitude
Rises 05:08:11 0° 14° (NNE) 3,244 6.4 -23.8°
Reaches altitude 10° 05:10:30 10° 14° (NNE) 2,313 5.6 -23.4°
Maximum altitude 05:15:37 89° 284° (WNW) 772 2.9 -22.6°
Drops below altitude 10° 05:20:42 10° 197° (SSW) 2,297 5.3 -21.8°
Sets 05:22:59 0° 197° (SSW) 3,219 6.1 -21.5°
